Overview Statistics Trail Chart Weather Telemetry Raw packets
 

This is the latest recevied weather packets stored in our database for station/object JA0BES-13. If no packets are shown the sender has not sent any weather packets the latest 10 day(s).

<< 35 36 37 38 39 40 41 >>
Time Temp. Humidity Pressure Rain* Wind** Luminosity Snow
1787887546 27.78° C 100% 1010.4 hPa 1.52 mm - - -
1787886946 27.78° C 100% 1010.3 hPa 1.52 mm - - -
1787886346 27.78° C 100% 1010.4 hPa 1.52 mm - - -
1787885745 27.78° C 100% 1010.4 hPa 1.52 mm - - -
1787885145 28.33° C 100% 1010.1 hPa 1.52 mm - - -
1787884544 27.78° C 100% 1010.4 hPa 1.52 mm - - -
1787883944 27.22° C 100% 1010.3 hPa 1.52 mm - - -
1787883344 26.67° C 100% 1010.1 hPa 1.52 mm - - -
1787882744 26.67° C 100% 1010.5 hPa 1.52 mm - - -
1787882143 26.67° C 100% 1010.5 hPa 1.52 mm - - -
1787881543 27.22° C 100% 1011.3 hPa 1.52 mm - - -
1787880942 26.67° C 100% 1011 hPa 1.27 mm - - -
1787880342 26.11° C 100% 1010.8 hPa 1.27 mm - - -
1787879742 26.11° C 100% 1011 hPa 1.27 mm - - -
1787879141 25.56° C 100% 1010.6 hPa 1.27 mm - - -
1787878541 25° C 100% 1010.7 hPa 1.27 mm - - -
1787877941 24.44° C 100% 1010.7 hPa 1.27 mm - - -
1787877340 24.44° C 100% 1010.7 hPa 1.27 mm - - -
1787876740 23.89° C 100% 1010.8 hPa 1.27 mm - - -
1787876139 22.78° C 100% 1009.7 hPa 1.27 mm - - -
1787875539 22.78° C 100% 1010.7 hPa 1.27 mm - - -
1787874939 21.67° C 100% 1009.5 hPa 1.27 mm - - -
1787874339 21.67° C 100% 1010.8 hPa 1.27 mm - - -
1787873738 21.67° C 100% 1010.5 hPa 1.27 mm - - -
1787873138 21.67° C 100% 1010.9 hPa 1.27 mm - - -

* Rain since midnight (hover to see other rain measurements)
** Current wind speed in m/s (hover to see current wind gust speed)